W4WWT Weather Reports


time (UTC)temp
F
wind
direction
speed
knots
gust
knots
rain 1hr
in
rain 24hr
in
rain mn
in
humidity
%
barometer
mb
20260906092502 69 108 0.0 0.0 0.00 0.00 0.00 100 1020.0
20260906091501 69 105 0.0 0.0 0.00 0.00 0.00 100 1020.0
20260906090001 69 122 0.0 0.0 0.00 0.00 0.00 100 1020.0
20260906084502 69 98 0.0 0.0 0.00 0.00 0.00 100 1020.0
20260906083502 70 105 0.0 0.0 0.00 0.00 0.00 100 1020.0
20260906082002 70 116 0.0 0.0 0.00 0.00 0.00 100 1020.0
20260906080505 70 97 0.0 0.0 0.00 0.00 0.00 100 1020.0
20260906075003 70 127 0.0 0.0 0.00 0.00 0.00 100 1019.6
20260906074002 70 123 0.0 0.0 0.00 0.00 0.00 100 1019.6
20260906072506 70 165 0.0 0.0 0.00 0.00 0.00 100 1019.6
20260906071002 70 185 0.0 0.0 0.00 0.00 0.00 100 1020.0
20260906065502 70 191 0.0 0.0 0.00 0.00 0.00 100 1020.0
20260906064006 70 156 0.0 0.0 0.00 0.00 0.00 100 1020.0
20260906063001 70 93 0.0 0.0 0.00 0.00 0.00 100 1020.0
20260906061503 71 124 0.0 0.0 0.00 0.00 0.00 100 1020.7
20260906060002 71 137 0.0 0.0 0.00 0.00 0.00 100 1020.7
20260906054506 71 102 0.0 0.0 0.00 0.00 0.00 100 1021.0
20260906052508 71 100 0.0 0.0 0.00 0.00 0.00 100 1021.3
20260906044003 72 108 0.0 0.0 0.00 0.00 0.00 100 1021.0
20260906042503 72 155 0.0 0.0 0.00 0.00 0.00 100 1021.0
20260906041002 72 93 0.0 0.0 0.00 0.00 0.00 100 1021.3
20260906040002 72 95 0.0 0.0 0.00 0.00 0.00 100 1021.3
20260906034502 73 173 0.0 0.0 0.00 0.00 0.11 100 1021.3
20260906033004 73 124 0.0 0.0 0.00 0.00 0.11 100 1021.3
20260906030002 73 113 0.0 0.0 0.00 0.00 0.11 100 1021.3
20260906024503 74 122 0.0 0.0 0.00 0.00 0.11 100 1021.3
20260906023502 74 132 0.0 0.9 0.00 0.00 0.11 100 1021.3
20260906022010 74 291 0.0 0.0 0.00 0.00 0.11 100 1021.0
20260906020502 74 295 0.0 0.0 0.00 0.00 0.11 100 1021.3
20260906014002 74 121 0.0 0.0 0.00 0.00 0.11 99 1021.0
20260906012502 75 105 0.0 0.0 0.00 0.00 0.11 99 1021.0
20260906005502 75 134 0.0 0.0 0.00 0.00 0.11 98 1020.3
20260906004501 76 112 0.0 0.0 0.00 0.00 0.11 97 1020.0
20260906000503 77 266 0.0 0.0 0.00 0.00 0.11 95 1019.6
20260905235002 78 307 0.0 0.0 0.00 0.00 0.11 93 1020.0
20260905233505 79 203 0.0 0.0 0.00 0.00 0.11 91 1020.0
20260905232002 79 140 0.0 0.0 0.00 0.00 0.11 90 1020.0
20260905230503 79 2 0.0 0.0 0.00 0.00 0.11 89 1020.0
20260905225002 79 59 0.0 0.0 0.00 0.00 0.11 87 1020.0
20260905224001 79 75 0.0 0.0 0.00 0.00 0.11 88 1020.0
20260905221004 79 69 0.0 0.0 0.00 0.00 0.11 90 1020.0
20260905215502 79 320 0.0 0.0 0.00 0.00 0.11 89 1020.0
20260905214003 79 78 0.0 0.0 0.00 0.00 0.11 86 1020.0
20260905212502 79 249 0.0 0.0 0.00 0.00 0.11 84 1020.0
20260905211002 80 89 0.0 1.7 0.00 0.00 0.11 85 1020.0
20260905205506 80 269 0.0 0.0 0.00 0.00 0.11 79 1020.3
20260905204502 80 68 0.0 0.0 0.00 0.00 0.11 79 1020.3
20260905203501 80 119 0.0 1.7 0.00 0.00 0.11 80 1021.3
20260905202008 79 321 0.0 0.9 0.05 0.00 0.11 83 1021.0
20260905201006 78 218 0.0 3.5 0.11 0.00 0.11 89 1021.0
20260905200002 78 89 0.0 1.7 0.11 0.00 0.11 90 1021.0
20260905194503 77 297 2.6 4.3 0.11 0.00 0.11 88 1021.3
20260905193006 83 94 3.5 6.1 0.10 0.00 0.10 80 1020.3
20260905192002 90 64 2.6 5.2 0.00 0.00 0.00 53 1020.3
20260905190504 96 109 1.7 2.6 0.00 0.00 0.00 50 1020.0
20260905185002 97 270 0.0 2.6 0.00 0.00 0.00 50 1020.3
20260905183502 96 75 1.7 2.6 0.00 0.00 0.00 52 1020.3
20260905182501 96 97 0.0 0.0 0.00 0.00 0.00 53 1020.3
20260905181002 97 254 0.0 0.0 0.00 0.00 0.00 52 1020.7
20260905175503 98 186 0.0 0.0 0.00 0.00 0.00 53 1021.0
20260905174003 96 21 0.0 0.0 0.00 0.00 0.00 55 1021.0
20260905172502 95 212 0.0 0.9 0.00 0.00 0.00 53 1021.3
20260905171002 96 91 0.0 0.0 0.00 0.00 0.00 54 1021.0
20260905165502 95 213 0.0 0.0 0.00 0.00 0.00 54 1021.7
20260905164002 93 52 0.0 0.0 0.00 0.00 0.00 60 1022.0
20260905162503 94 56 0.0 0.0 0.00 0.00 0.00 60 1022.0
20260905161004 93 334 0.0 0.0 0.00 0.00 0.00 61 1022.4
20260905155502 93 313 0.0 0.0 0.00 0.00 0.00 62 1022.4
20260905154002 91 275 0.0 0.0 0.00 0.00 0.00 66 1022.4
20260905151003 89 87 0.0 0.0 0.00 0.00 0.00 67 1022.7
20260905145502 86 103 0.0 0.0 0.00 0.00 0.00 72 1022.7
20260905141005 80 12 0.0 0.0 0.00 0.00 0.00 85 1023.0
20260905140005 79 336 0.0 0.0 0.00 0.00 0.00 87 1023.0
20260905134503 77 324 0.0 0.0 0.00 0.00 0.00 94 1023.0
20260905133007 75 12 0.0 0.0 0.00 0.00 0.00 97 1023.0
20260905131502 74 20 0.0 0.0 0.00 0.00 0.00 100 1023.0
20260905130002 73 11 0.0 0.0 0.00 0.00 0.00 100 1023.0
20260905124502 72 12 0.0 0.0 0.00 0.00 0.00 100 1023.0
20260905123501 71 26 0.0 0.0 0.00 0.00 0.00 100 1023.0
20260905122002 70 73 0.0 0.0 0.00 0.00 0.00 100 1023.0
20260905120503 70 78 0.0 0.0 0.00 0.00 0.00 100 1023.0
20260905115502 70 82 0.0 0.0 0.00 0.00 0.00 100 1022.7
20260905114501 69 75 0.0 0.0 0.00 0.00 0.00 100 1022.7
20260905113002 69 89 0.0 0.0 0.00 0.00 0.00 100 1022.4
20260905105502 70 89 0.0 0.0 0.00 0.00 0.00 100 1022.0
20260905104002 70 109 0.0 0.0 0.00 0.00 0.00 100 1022.0
20260905103001 70 315 0.0 0.0 0.00 0.00 0.00 100 1022.0
20260905101502 70 95 0.0 0.0 0.00 0.00 0.00 100 1022.0
20260905094503 70 129 0.0 0.0 0.00 0.00 0.00 100 1022.0